Year,Month,Day,Hour,Minute,Value (Times are PST for temperature in C)
2010,06,15,12,11,11.00
2010,06,15,12,12,11.00
2010,06,15,12,14,11.00
2010,06,15,12,16,11.00
2010,06,15,12,17,11.10
2010,06,15,12,20,11.30
2010,06,15,12,21,11.40
2010,06,15,12,22,11.50
2010,06,15,12,23,11.60
2010,06,15,12,24,11.70
2010,06,15,12,25,11.80
2010,06,15,12,26,11.90
2010,06,15,12,27,12.10
2010,06,15,12,28,12.10
2010,06,15,12,29,12.20
2010,06,15,12,30,12.30
2010,06,15,12,31,12.30
2010,06,15,12,32,12.40
2010,06,15,12,33,12.50
2010,06,15,12,34,12.60
2010,06,15,12,35,12.70
2010,06,15,12,36,12.80
2010,06,15,12,37,12.80
2010,06,15,12,38,12.80
2010,06,15,12,39,12.80
2010,06,15,12,40,12.70
2010,06,15,12,41,12.70
2010,06,15,12,42,12.70
2010,06,15,12,43,12.80
2010,06,15,12,44,12.80
2010,06,15,12,45,12.90
2010,06,15,12,46,13.00
2010,06,15,12,47,13.00
2010,06,15,12,48,13.10
2010,06,15,12,49,13.10
2010,06,15,12,50,13.20
2010,06,15,12,51,13.20
2010,06,15,12,52,13.20
2010,06,15,12,53,13.30
2010,06,15,12,54,13.30
2010,06,15,12,55,13.30
2010,06,15,12,56,13.30
2010,06,15,12,57,13.20
2010,06,15,12,58,13.20
2010,06,15,12,59,13.30
2010,06,15,13,00,13.30
2010,06,15,13,01,13.30
2010,06,15,13,02,13.40
2010,06,15,13,03,13.40
2010,06,15,13,04,13.40
2010,06,15,13,05,13.40
2010,06,15,13,06,13.40
2010,06,15,13,07,13.50
2010,06,15,13,08,13.50
2010,06,15,13,09,13.50
2010,06,15,13,10,13.60
2010,06,15,13,11,13.60
2010,06,15,13,12,13.70
2010,06,15,13,13,13.70
2010,06,15,13,14,13.70
2010,06,15,13,15,13.80
2010,06,15,13,16,13.80
2010,06,15,13,17,13.90
2010,06,15,13,18,13.90
2010,06,15,13,19,13.90
2010,06,15,13,20,14.00
2010,06,15,13,21,14.10
2010,06,15,13,22,14.10
2010,06,15,13,23,14.10
2010,06,15,13,24,14.10
2010,06,15,13,25,14.10
2010,06,15,13,26,14.00
2010,06,15,13,27,14.10
2010,06,15,13,28,14.00
2010,06,15,13,29,14.10
2010,06,15,13,30,14.10
2010,06,15,13,31,14.10
2010,06,15,13,32,14.10
2010,06,15,13,33,14.10
2010,06,15,13,34,14.20
2010,06,15,13,35,14.20
2010,06,15,13,36,14.30
2010,06,15,13,37,14.40
2010,06,15,13,38,14.50
2010,06,15,13,39,14.60
2010,06,15,13,40,14.70
2010,06,15,13,41,14.80
2010,06,15,13,42,15.00
2010,06,15,13,43,15.00
2010,06,15,13,44,15.00
2010,06,15,13,45,15.00
2010,06,15,13,46,15.00
2010,06,15,13,47,14.90
2010,06,15,13,48,14.80
2010,06,15,13,49,14.70
2010,06,15,13,50,14.70
2010,06,15,13,51,14.60
2010,06,15,13,52,14.60
2010,06,15,13,53,14.60
2010,06,15,13,54,14.60
2010,06,15,13,55,14.50
2010,06,15,13,56,14.40
2010,06,15,13,57,14.30
2010,06,15,13,58,14.30
2010,06,15,13,59,14.30
2010,06,15,14,00,14.20
2010,06,15,14,01,14.20
2010,06,15,14,02,14.30
2010,06,15,14,03,14.30
2010,06,15,14,04,14.30
2010,06,15,14,05,14.40
2010,06,15,14,06,14.40
2010,06,15,14,07,14.40
2010,06,15,14,08,14.50
2010,06,15,14,09,14.50
2010,06,15,14,10,14.50
2010,06,15,14,11,14.60
2010,06,15,14,12,14.60
2010,06,15,14,13,14.60
2010,06,15,14,14,14.70
2010,06,15,14,15,14.70
2010,06,15,14,16,14.80
2010,06,15,14,17,14.80
2010,06,15,14,18,14.90
2010,06,15,14,19,14.90
2010,06,15,14,20,14.90
2010,06,15,14,21,14.90
2010,06,15,14,22,14.80
2010,06,15,14,23,14.60
2010,06,15,14,24,14.50
2010,06,15,14,25,14.40
2010,06,15,14,26,14.20
2010,06,15,14,27,14.20
2010,06,15,14,28,14.10
2010,06,15,14,29,14.10
2010,06,15,14,30,14.00
2010,06,15,14,31,14.00
2010,06,15,14,32,14.00
2010,06,15,14,33,13.90
2010,06,15,14,34,13.90
2010,06,15,14,35,13.90
2010,06,15,14,36,13.90
2010,06,15,14,37,13.90
2010,06,15,14,38,13.80
2010,06,15,14,39,13.80
2010,06,15,14,40,13.70
2010,06,15,14,41,13.70
2010,06,15,14,42,13.70
2010,06,15,14,43,13.80
2010,06,15,14,44,13.90
2010,06,15,14,45,13.90
2010,06,15,14,46,14.00
2010,06,15,14,47,14.10
2010,06,15,14,48,14.10
2010,06,15,14,49,14.10
2010,06,15,14,50,14.20
2010,06,15,14,51,14.20
2010,06,15,14,52,14.20
2010,06,15,14,53,14.20
2010,06,15,14,54,14.20
2010,06,15,14,55,14.20
2010,06,15,14,56,14.30
2010,06,15,14,57,14.30
2010,06,15,14,58,14.40
2010,06,15,14,59,14.50
2010,06,15,15,00,14.60
2010,06,15,15,01,14.70
2010,06,15,15,02,14.70
2010,06,15,15,03,14.80
2010,06,15,15,04,14.80
2010,06,15,15,05,14.90
2010,06,15,15,06,15.00
2010,06,15,15,07,15.00
2010,06,15,15,08,15.00
2010,06,15,15,09,14.90
2010,06,15,15,10,14.80
2010,06,15,15,11,14.70
2010,06,15,15,12,14.70
2010,06,15,15,13,14.70
2010,06,15,15,14,14.70
2010,06,15,15,15,14.70
2010,06,15,15,16,14.80
2010,06,15,15,17,14.90
2010,06,15,15,18,14.90
2010,06,15,15,19,14.90
2010,06,15,15,20,14.90
2010,06,15,15,21,15.00
2010,06,15,15,22,15.00
2010,06,15,15,23,15.00
2010,06,15,15,24,15.00
2010,06,15,15,25,15.10
2010,06,15,15,26,15.10
2010,06,15,15,27,15.10
2010,06,15,15,28,15.10
2010,06,15,15,29,15.20
2010,06,15,15,30,15.20
2010,06,15,15,31,15.20
2010,06,15,15,32,15.20
2010,06,15,15,33,15.20
2010,06,15,15,34,15.00
2010,06,15,15,35,15.00
2010,06,15,15,36,15.00
2010,06,15,15,37,15.00
2010,06,15,15,38,14.80
2010,06,15,15,39,14.70
2010,06,15,15,40,14.70
2010,06,15,15,41,14.70
2010,06,15,15,42,14.70
2010,06,15,15,43,14.70
2010,06,15,15,44,14.70
2010,06,15,15,45,14.70
2010,06,15,15,46,14.80
2010,06,15,15,47,14.80
2010,06,15,15,48,14.80
2010,06,15,15,49,14.80
2010,06,15,15,50,14.80
2010,06,15,15,51,14.80
2010,06,15,15,52,14.80
2010,06,15,15,53,14.80
2010,06,15,15,54,14.80
2010,06,15,15,55,14.80
2010,06,15,15,56,14.80
2010,06,15,15,57,14.70
2010,06,15,15,58,14.70
2010,06,15,15,59,14.70
2010,06,15,16,00,14.60
2010,06,15,16,01,14.60
2010,06,15,16,02,14.60
2010,06,15,16,03,14.60
2010,06,15,16,04,14.50
2010,06,15,16,05,14.50
2010,06,15,16,06,14.40
2010,06,15,16,07,14.40
2010,06,15,16,08,14.30
2010,06,15,16,09,14.20
2010,06,15,16,10,14.10
2010,06,15,16,11,14.00
2010,06,15,16,12,14.00
2010,06,15,16,13,14.00
2010,06,15,16,14,14.00
2010,06,15,16,15,14.00
2010,06,15,16,16,14.10
2010,06,15,16,17,14.10
2010,06,15,16,18,14.20
2010,06,15,16,19,14.20
2010,06,15,16,20,14.20
2010,06,15,16,21,14.10
2010,06,15,16,22,14.10
2010,06,15,16,23,14.10
2010,06,15,16,24,14.10
2010,06,15,16,25,14.20
2010,06,15,16,26,14.20
2010,06,15,16,27,14.20
2010,06,15,16,28,14.30
2010,06,15,16,29,14.30
2010,06,15,16,30,14.30
2010,06,15,16,31,14.30
2010,06,15,16,32,14.30
2010,06,15,16,33,14.30
2010,06,15,16,34,14.30
2010,06,15,16,35,14.20
2010,06,15,16,36,14.20
2010,06,15,16,37,14.10
2010,06,15,16,38,14.10
2010,06,15,16,39,14.10
2010,06,15,16,40,14.10
2010,06,15,16,41,14.10
2010,06,15,16,42,14.20
2010,06,15,16,43,14.10
2010,06,15,16,44,14.10
2010,06,15,16,45,14.10
2010,06,15,16,46,14.10
2010,06,15,16,47,14.00
2010,06,15,16,48,13.90
2010,06,15,16,49,13.80
2010,06,15,16,50,13.70
2010,06,15,16,51,13.60
2010,06,15,16,52,13.60
2010,06,15,16,53,13.50
2010,06,15,16,54,13.40
2010,06,15,16,55,13.40
2010,06,15,16,56,13.30
2010,06,15,16,57,13.20
2010,06,15,16,58,13.20
2010,06,15,16,59,13.10
2010,06,15,17,00,13.10
2010,06,15,17,01,13.10
2010,06,15,17,02,13.10
2010,06,15,17,03,13.10
2010,06,15,17,04,13.10
2010,06,15,17,05,13.20
2010,06,15,17,06,13.20
2010,06,15,17,07,13.20
2010,06,15,17,08,13.20
2010,06,15,17,09,13.20
2010,06,15,17,10,13.20
2010,06,15,17,11,13.20
2010,06,15,17,12,13.20
2010,06,15,17,13,13.20
2010,06,15,17,14,13.20
2010,06,15,17,15,13.10
2010,06,15,17,16,13.20
2010,06,15,17,17,13.20
2010,06,15,17,18,13.20
2010,06,15,17,19,13.20
2010,06,15,17,20,13.20
2010,06,15,17,21,13.10
2010,06,15,17,22,13.10
2010,06,15,17,23,13.10
2010,06,15,17,24,13.10
2010,06,15,17,25,13.00
2010,06,15,17,26,13.00
2010,06,15,17,27,13.00
2010,06,15,17,28,13.00
2010,06,15,17,29,13.10
2010,06,15,17,30,13.10
2010,06,15,17,31,13.10
2010,06,15,17,32,13.10
2010,06,15,17,33,13.10
2010,06,15,17,34,13.10
2010,06,15,17,35,13.10
2010,06,15,17,36,13.20
2010,06,15,17,37,13.20
2010,06,15,17,38,13.30
2010,06,15,17,39,13.30
2010,06,15,17,40,13.30
2010,06,15,17,41,13.40
2010,06,15,17,42,13.40
2010,06,15,17,43,13.40
2010,06,15,17,44,13.50
2010,06,15,17,45,13.50
2010,06,15,17,46,13.50
2010,06,15,17,47,13.50
2010,06,15,17,48,13.60
2010,06,15,17,49,13.50
2010,06,15,17,50,13.50
2010,06,15,17,51,13.50
2010,06,15,17,52,13.40
2010,06,15,17,53,13.40
2010,06,15,17,54,13.40
2010,06,15,17,55,13.40
2010,06,15,17,56,13.40
2010,06,15,17,57,13.30
2010,06,15,17,58,13.30
2010,06,15,17,59,13.30
2010,06,15,18,00,13.30
2010,06,15,18,01,13.30
2010,06,15,18,02,13.30
2010,06,15,18,03,13.30
2010,06,15,18,04,13.30
2010,06,15,18,05,13.30
2010,06,15,18,06,13.30
2010,06,15,18,07,13.30
2010,06,15,18,08,13.30
2010,06,15,18,09,13.30
2010,06,15,18,10,13.30
2010,06,15,18,11,13.30
2010,06,15,18,12,13.30
2010,06,15,18,13,13.20
2010,06,15,18,14,13.20
2010,06,15,18,15,13.20
2010,06,15,18,16,13.20
2010,06,15,18,17,13.20
2010,06,15,18,18,13.20
2010,06,15,18,19,13.20
2010,06,15,18,20,13.20
2010,06,15,18,21,13.30
2010,06,15,18,22,13.30
2010,06,15,18,23,13.30
2010,06,15,18,24,13.30
2010,06,15,18,25,13.40
2010,06,15,18,26,13.40
2010,06,15,18,27,13.50
2010,06,15,18,28,13.50
2010,06,15,18,29,13.60
2010,06,15,18,30,13.60
2010,06,15,18,31,13.70
2010,06,15,18,32,13.70
2010,06,15,18,33,13.80
2010,06,15,18,34,13.80
2010,06,15,18,35,13.70
2010,06,15,18,36,13.80
2010,06,15,18,37,13.80
2010,06,15,18,38,13.80
2010,06,15,18,39,13.80
2010,06,15,18,40,13.80
2010,06,15,18,41,13.80
2010,06,15,18,42,13.70
2010,06,15,18,43,13.70
2010,06,15,18,44,13.70
2010,06,15,18,45,13.60
2010,06,15,18,46,13.60
2010,06,15,18,47,13.60
2010,06,15,18,48,13.60
2010,06,15,18,49,13.50
2010,06,15,18,50,13.50
2010,06,15,18,51,13.50
2010,06,15,18,52,13.50
2010,06,15,18,53,13.40
2010,06,15,18,54,13.40
2010,06,15,18,55,13.40
2010,06,15,18,56,13.40
2010,06,15,18,57,13.40
2010,06,15,18,58,13.40
2010,06,15,18,59,13.40
2010,06,15,19,00,13.40
2010,06,15,19,01,13.40
2010,06,15,19,02,13.30
2010,06,15,19,03,13.30
2010,06,15,19,04,13.30
2010,06,15,19,05,13.30
2010,06,15,19,06,13.20
2010,06,15,19,07,13.20
2010,06,15,19,08,13.20
2010,06,15,19,09,13.20
2010,06,15,19,10,13.20
2010,06,15,19,11,13.20
2010,06,15,19,12,13.20
2010,06,15,19,13,13.20
2010,06,15,19,14,13.10
2010,06,15,19,15,13.10
2010,06,15,19,16,13.10
2010,06,15,19,17,13.10
2010,06,15,19,18,13.10
2010,06,15,19,19,13.10
2010,06,15,19,20,13.10
2010,06,15,19,21,13.10
2010,06,15,19,22,13.00
2010,06,15,19,23,13.00
2010,06,15,19,24,13.00
2010,06,15,19,25,13.00
2010,06,15,19,26,13.00
2010,06,15,19,27,13.00
2010,06,15,19,28,13.00
2010,06,15,19,29,13.00
2010,06,15,19,30,12.90
2010,06,15,19,31,12.90
2010,06,15,19,32,12.90
2010,06,15,19,33,12.90
2010,06,15,19,34,12.80
2010,06,15,19,35,12.80
2010,06,15,19,36,12.80
2010,06,15,19,37,12.80
2010,06,15,19,38,12.80
2010,06,15,19,39,12.80
2010,06,15,19,40,12.80
2010,06,15,19,41,12.80
2010,06,15,19,42,12.90
2010,06,15,19,43,12.90
2010,06,15,19,44,12.90
2010,06,15,19,45,12.90
2010,06,15,19,46,12.90
2010,06,15,19,47,13.00
2010,06,15,19,48,13.00
2010,06,15,19,49,13.00
2010,06,15,19,50,13.00
2010,06,15,19,51,13.00
2010,06,15,19,52,13.00
2010,06,15,19,53,13.00
2010,06,15,19,54,13.00
2010,06,15,19,55,13.00
2010,06,15,19,56,13.00
2010,06,15,19,57,13.10
2010,06,15,19,58,13.10
2010,06,15,19,59,13.10
2010,06,15,20,00,13.10
2010,06,15,20,01,13.20
2010,06,15,20,02,13.20
2010,06,15,20,03,13.20
2010,06,15,20,04,13.20
2010,06,15,20,05,13.20
2010,06,15,20,06,13.20
2010,06,15,20,07,13.10
2010,06,15,20,08,13.10
2010,06,15,20,09,13.10
2010,06,15,20,10,13.00
2010,06,15,20,11,13.00
2010,06,15,20,12,13.00
2010,06,15,20,13,12.90
2010,06,15,20,14,12.90
2010,06,15,20,15,12.80
2010,06,15,20,16,12.80
2010,06,15,20,17,12.80
2010,06,15,20,18,12.70
2010,06,15,20,19,12.70
2010,06,15,20,20,12.70
2010,06,15,20,21,12.70
2010,06,15,20,22,12.60
2010,06,15,20,23,12.60
2010,06,15,20,24,12.60
2010,06,15,20,25,12.50
2010,06,15,20,26,12.50
2010,06,15,20,27,12.50
2010,06,15,20,28,12.40
2010,06,15,20,29,12.40
2010,06,15,20,30,12.40
2010,06,15,20,31,12.40
2010,06,15,20,32,12.30
2010,06,15,20,33,12.30
2010,06,15,20,34,12.30
2010,06,15,20,35,12.30
2010,06,15,20,36,12.30
2010,06,15,20,37,12.30
2010,06,15,20,38,12.30
2010,06,15,20,39,12.30
2010,06,15,20,40,12.30
2010,06,15,20,41,12.30
2010,06,15,20,42,12.30
2010,06,15,20,43,12.30
2010,06,15,20,44,12.30
2010,06,15,20,45,12.30
2010,06,15,20,46,12.30
2010,06,15,20,47,12.20
2010,06,15,20,48,12.20
2010,06,15,20,49,12.20
2010,06,15,20,50,12.20
2010,06,15,20,51,12.20
2010,06,15,20,52,12.20
2010,06,15,20,53,12.20
2010,06,15,20,54,12.20
2010,06,15,20,55,12.10
2010,06,15,20,56,12.10
2010,06,15,20,57,12.10
2010,06,15,20,58,12.10
2010,06,15,20,59,12.10
2010,06,15,21,00,12.10
2010,06,15,21,01,12.00
2010,06,15,21,02,12.00
2010,06,15,21,03,12.00
2010,06,15,21,04,11.90
2010,06,15,21,05,11.90
2010,06,15,21,06,11.80
2010,06,15,21,07,11.80
2010,06,15,21,08,11.80
2010,06,15,21,09,11.80
2010,06,15,21,10,11.70
2010,06,15,21,11,11.70
2010,06,15,21,12,11.70
2010,06,15,21,13,11.70
2010,06,15,21,14,11.70
2010,06,15,21,15,11.70
2010,06,15,21,16,11.70
2010,06,15,21,17,11.70
2010,06,15,21,18,11.70
2010,06,15,21,19,11.70
2010,06,15,21,20,11.70
2010,06,15,21,21,11.70
2010,06,15,21,22,11.70
2010,06,15,21,23,11.60
2010,06,15,21,24,11.60
2010,06,15,21,25,11.60
2010,06,15,21,26,11.60
2010,06,15,21,27,11.50
2010,06,15,21,28,11.50
2010,06,15,21,29,11.50
2010,06,15,21,30,11.40
2010,06,15,21,31,11.40
2010,06,15,21,32,11.40
2010,06,15,21,33,11.40
2010,06,15,21,34,11.30
2010,06,15,21,35,11.30
2010,06,15,21,36,11.30
2010,06,15,21,37,11.30
2010,06,15,21,38,11.30
2010,06,15,21,39,11.30
2010,06,15,21,40,11.30
2010,06,15,21,41,11.30
2010,06,15,21,42,11.30
2010,06,15,21,43,11.20
2010,06,15,21,44,11.20
2010,06,15,21,45,11.20
2010,06,15,21,46,11.10
2010,06,15,21,47,11.10
2010,06,15,21,48,11.10
2010,06,15,21,49,11.00
2010,06,15,21,50,10.90
2010,06,15,21,51,10.80
2010,06,15,21,52,10.80
2010,06,15,21,53,10.70
2010,06,15,21,54,10.60
2010,06,15,21,55,10.50
2010,06,15,21,56,10.40
2010,06,15,21,57,10.40
2010,06,15,21,58,10.30
2010,06,15,21,59,10.20
2010,06,15,22,00,10.20
2010,06,15,22,01,10.20
2010,06,15,22,02,10.20
2010,06,15,22,03,10.20
2010,06,15,22,04,10.20
2010,06,15,22,05,10.20
2010,06,15,22,06,10.20
2010,06,15,22,07,10.10
2010,06,15,22,08,10.10
2010,06,15,22,09,10.10
2010,06,15,22,10,10.10
2010,06,15,22,11,10.10
2010,06,15,22,12,10.10
2010,06,15,22,13,10.10
2010,06,15,22,14,10.10
2010,06,15,22,15,10.10
2010,06,15,22,16,10.00
2010,06,15,22,17,10.00
2010,06,15,22,18,10.00
2010,06,15,22,19,10.00
2010,06,15,22,20,10.00
2010,06,15,22,21,10.00
2010,06,15,22,22,10.00
2010,06,15,22,23,10.00
2010,06,15,22,24,9.90
2010,06,15,22,25,9.90
2010,06,15,22,26,9.90
2010,06,15,22,27,9.90
2010,06,15,22,28,9.90
2010,06,15,22,29,9.90
2010,06,15,22,30,9.90
2010,06,15,22,31,9.90
2010,06,15,22,32,9.90
2010,06,15,22,33,9.90
2010,06,15,22,34,9.90
2010,06,15,22,35,9.90
2010,06,15,22,36,9.90
2010,06,15,22,37,9.90
2010,06,15,22,38,9.90
2010,06,15,22,39,9.90
2010,06,15,22,40,9.90
2010,06,15,22,41,9.90
2010,06,15,22,42,9.90
2010,06,15,22,43,9.90
2010,06,15,22,44,9.90
2010,06,15,22,45,9.90
2010,06,15,22,46,9.90
2010,06,15,22,47,9.90
2010,06,15,22,48,9.90
2010,06,15,22,49,9.90
2010,06,15,22,50,9.90
2010,06,15,22,51,9.90
2010,06,15,22,52,9.90
2010,06,15,22,53,9.90
2010,06,15,22,54,9.90
2010,06,15,22,55,10.00
2010,06,15,22,56,9.90
2010,06,15,22,57,10.00
2010,06,15,22,58,10.00
2010,06,15,22,59,9.90
2010,06,15,23,00,9.90
2010,06,15,23,01,9.90
2010,06,15,23,02,9.90
2010,06,15,23,03,9.90
2010,06,15,23,04,9.90
2010,06,15,23,05,9.90
2010,06,15,23,06,9.80
2010,06,15,23,07,9.80
2010,06,15,23,08,9.80
2010,06,15,23,09,9.80
2010,06,15,23,10,9.80
2010,06,15,23,11,9.80
2010,06,15,23,12,9.80
2010,06,15,23,13,9.80
2010,06,15,23,14,9.80
2010,06,15,23,15,9.80
2010,06,15,23,16,9.80
2010,06,15,23,17,9.80
2010,06,15,23,18,9.80
2010,06,15,23,19,9.80
2010,06,15,23,20,9.80
2010,06,15,23,21,9.70
2010,06,15,23,22,9.70
2010,06,15,23,23,9.70
2010,06,15,23,24,9.70
2010,06,15,23,25,9.70
2010,06,15,23,26,9.70
2010,06,15,23,27,9.70
2010,06,15,23,28,9.70
2010,06,15,23,29,9.80
2010,06,15,23,30,9.80
2010,06,15,23,31,9.80
2010,06,15,23,32,9.90
2010,06,15,23,33,9.90
2010,06,15,23,34,9.90
2010,06,15,23,35,9.90
2010,06,15,23,36,10.00
2010,06,15,23,37,10.00
2010,06,15,23,38,10.00
2010,06,15,23,39,10.00
2010,06,15,23,40,10.00
2010,06,15,23,41,10.00
2010,06,15,23,42,10.00
2010,06,15,23,43,9.90
2010,06,15,23,44,9.90
2010,06,15,23,45,9.90
2010,06,15,23,46,9.90
2010,06,15,23,47,9.90
2010,06,15,23,48,9.90
2010,06,15,23,49,10.00
2010,06,15,23,50,10.00
2010,06,15,23,51,10.00
2010,06,15,23,52,9.90
2010,06,15,23,53,10.00
2010,06,15,23,54,9.90
2010,06,15,23,55,9.90
2010,06,15,23,56,9.90
2010,06,15,23,57,9.90
2010,06,15,23,58,9.90
2010,06,15,23,59,9.90
